TimeCDT,TemperatureF,Dew PointF,Humidity,Sea Level PressureIn,VisibilityMPH,Wind Direction,Wind SpeedMPH,Gust SpeedMPH,PrecipitationIn,Events,Conditions,WindDirDegrees,DateUTC
12:43 AM,60.8,59.0,94,29.91,3.0,SSE,3.5,-,N/A,,Overcast,160,2012-10-24 05:43:00
12:53 AM,60.1,59.0,96,29.91,3.0,SSE,3.5,-,N/A,,Overcast,160,2012-10-24 05:53:00
1:53 AM,61.0,59.0,93,29.90,4.0,South,3.5,-,N/A,,Overcast,180,2012-10-24 06:53:00
2:53 AM,62.1,60.1,93,29.90,4.0,South,4.6,-,N/A,,Overcast,190,2012-10-24 07:53:00
3:53 AM,62.1,59.0,90,29.89,6.0,South,5.8,-,N/A,,Clear,190,2012-10-24 08:53:00
4:53 AM,62.1,59.0,90,29.89,6.0,South,8.1,-,N/A,,Scattered Clouds,190,2012-10-24 09:53:00
5:53 AM,62.1,59.0,90,29.91,7.0,SSW,8.1,-,0.01,,Mostly Cloudy,210,2012-10-24 10:53:00
6:53 AM,62.1,59.0,90,29.92,7.0,SSW,8.1,-,N/A,,Mostly Cloudy,210,2012-10-24 11:53:00
7:53 AM,63.0,59.0,87,29.92,7.0,SSW,8.1,-,N/A,,Clear,210,2012-10-24 12:53:00
8:53 AM,64.9,59.0,81,29.92,10.0,SW,9.2,-,N/A,,Scattered Clouds,220,2012-10-24 13:53:00
9:53 AM,68.0,61.0,78,29.93,10.0,SSW,6.9,-,N/A,,Partly Cloudy,210,2012-10-24 14:53:00
10:53 AM,72.0,61.0,68,29.92,10.0,SW,10.4,17.3,N/A,,Clear,230,2012-10-24 15:53:00
11:53 AM,73.9,62.1,66,29.91,10.0,SW,10.4,-,N/A,,Clear,230,2012-10-24 16:53:00
12:53 PM,77.0,63.0,62,29.88,10.0,SSW,9.2,-,N/A,,Clear,200,2012-10-24 17:53:00
1:53 PM,78.1,64.0,62,29.86,10.0,South,11.5,-,N/A,,Scattered Clouds,180,2012-10-24 18:53:00
2:53 PM,77.0,64.0,64,29.85,10.0,South,12.7,-,N/A,,Overcast,190,2012-10-24 19:53:00
4:53 PM,73.0,62.1,68,29.84,10.0,SE,6.9,-,N/A,,Partly Cloudy,140,2012-10-24 21:53:00
5:53 PM,70.0,61.0,73,29.83,10.0,SE,6.9,-,N/A,,Clear,140,2012-10-24 22:53:00
6:53 PM,68.0,62.1,81,29.85,10.0,South,4.6,-,N/A,,Clear,190,2012-10-24 23:53:00
7:53 PM,72.0,64.0,76,29.84,10.0,South,9.2,-,N/A,,Clear,180,2012-10-25 00:53:00
8:53 PM,72.0,63.0,73,29.84,10.0,South,13.8,-,N/A,,Clear,190,2012-10-25 01:53:00
9:53 PM,71.1,63.0,75,29.83,10.0,South,13.8,20.7,N/A,,Clear,190,2012-10-25 02:53:00
11:53 PM,69.1,62.1,78,29.82,10.0,SSW,11.5,-,N/A,,Clear,200,2012-10-25 04:53:00